Regional Weather Roundup
Issued by NWS

Home | Current Version | Previous Version | Graphics & Text | Print | Product List | Glossary On
Versions: 1 2 3 4 5 6 7 8 9 10 11 12 13 14 15 16 17 18 19 20 21 22 23 24 25 26 27 28 29 30 31 32 33 34 35 36 37 38 39 40 41 42 43 44 45 46 47 48 49 50
000
ASUS43 KMKX 012359
RWRWI

WISCONSIN REGIONAL WEATHER ROUNDUP
NATIONAL WEATHER SERVICE MILWAUKEE/SULLIVAN WI
600 PM CST SUN FEB 01 2015

NOTE: "FAIR" INDICATES FEW OR NO CLOUDS BELOW 12,000 FEET WITH NO
SIGNIFICANT WEATHER AND/OR OBSTRUCTIONS TO VISIBILITY.

WIZ001-002-006>008-014>016-023>028-020100-
NORTHWEST WISCONSIN

CITY           SKY/WX    TMP DP  RH WIND       PRES   REMARKS
SUPERIOR ARPT  CLEAR      8 -10  43 N7        30.31S WCI  -4
ASHLAND        CLOUDY     8   0  69 N9        30.28S WCI  -5
6HR MIN TEMP:   8; 6HR MAX TEMP:  10; 6HR PCP: TRACE;

HAYWARD        CLEAR      7  -2  66 N6        30.22R WCI  -3
6HR MIN TEMP:   7; 6HR MAX TEMP:  12; 6HR PCP: TRACE;

SIREN          CLEAR     10  -1  63 N8G17     30.26R WCI  -3
CUMBERLAND     PTCLDY    10   0  61 N9        30.19R WCI  -2
RICE LAKE      PTCLDY    10   1  64 N13G20    30.21R WCI  -5
CHETEK         PTCLDY    11   1  64 MISG      30.19R
LADYSMITH      PTCLDY    13   4  67 N10G16    30.17R WCI  -1
EAU CLAIRE     NOT AVBL
MENOMONIE      MOCLDY    14   3  61 N13G18    30.19R WCI   0
NEW RICHMOND   CLEAR     12   1  62 N10       30.22R WCI  -2
OSCEOLA        CLEAR     13   2  62 N9        30.27R WCI   0
$$

WIZ003>005-009-010-017-018-020100-
NORTH CENTRAL WISCONSIN

CITY           SKY/WX    TMP DP  RH WIND       PRES   REMARKS
MANITOWISH WTR MOCLDY     6  -5  62 N5        30.13S WCI  -3
ARBOR VITAE    MOCLDY     9  -1  65 NE6       30.12S WCI  -1
WOODRUFF       MOCLDY     9  -1  65 NE6       30.12S WCI  -1
RHINELANDER    MOCLDY     7  -3  64 N12G17    30.10S WCI  -8
6HR MIN TEMP:   7; 6HR MAX TEMP:  10;

EAGLE RIVER    CLOUDY     7  -2  65 NE12      30.11R WCI  -8
LAND O LAKES   CLOUDY     7   0  72 NE9       30.13S WCI  -6
PHILLIPS       CLEAR      8  -3  62 N12       30.13R WCI  -7
TOMAHAWK       MOCLDY     9  -1  63 N8        30.12R WCI  -3
MEDFORD        MOCLDY     9  -1  62 N16       30.09S WCI  -8
MERRILL        MOCLDY    10  -1  60 NE10G16   30.10S WCI  -3
$$

WIZ029-030-035-036-043>047-020100-
CENTRAL WISCONSIN

CITY           SKY/WX    TMP DP  RH WIND       PRES   REMARKS
WAUSAU         CLOUDY    11  -1  58 N8        30.09R WCI  -1
6HR MIN TEMP:  11; 6HR MAX TEMP:  13;

MOSINEE        NOT AVBL
MARSHFIELD     CLOUDY    12   0  58 N10G17    30.09R WCI  -1
6HR MIN TEMP:  12; 6HR MAX TEMP:  14;

STEVENS POINT  CLOUDY    11  -1  58 N14       30.09R WCI  -5
WAUPACA        CLOUDY    13  -1  54 N12G17    30.10R WCI  -1
WAUTOMA        NOT AVBL
WISC RAPIDS    CLOUDY    13   0  56 NE16      30.10S WCI  -3
6HR MIN TEMP:  12; 6HR MAX TEMP:  14; 6HR PCP: TRACE;

CAMP DOUGLAS   FLURRIES  12   9  85 N7        30.10R WCI   2
$$

WIZ011>013-019>022-031-037>040-048>050-020100-
NORTHEAST WISCONSIN

CITY           SKY/WX    TMP DP  RH WIND       PRES   REMARKS
ANTIGO         CLOUDY     8   0  69 N13G20    30.07S WCI  -7
SHAWANO        CLOUDY    13   3  62 NE10      30.12S WCI   0
OCONTO         CLOUDY    10  -2  57 N12G17    30.14S WCI  -5
STURGEON BAY   CLOUDY     7  -4  61 N15G24    30.12S WCI -11
6HR MIN TEMP:   7; 6HR MAX TEMP:  10;

GREEN BAY      CLOUDY     9   0  67 NE21      30.11S WCI -11
6HR MIN TEMP:   8; 6HR MAX TEMP:  10; 6HR PCP: TRACE;

MANITOWOC      NOT AVBL
APPLETON       CLOUDY     9  -4  56 NE16G24   30.08R WCI  -9
CLINTONVILLE   CLOUDY    12   1  62 NE14G21   30.10S WCI  -3
OSHKOSH        LGT SNOW   8   1  73 N22G35    30.06R WCI -12
6HR MIN TEMP:   8; 6HR MAX TEMP:  11; 6HR PCP: TRACE;

$$

WIZ032>034-041-042-053>061-020100-
SOUTHWEST WISCONSIN

CITY           SKY/WX    TMP DP  RH WIND       PRES   REMARKS
LA CROSSE      CLOUDY    16   3  56 N14       30.13S WCI   2
6HR MIN TEMP:  16; 6HR MAX TEMP:  17; 6HR PCP:  0.01;

SPARTA         CLOUDY    14   7  74 N13G20    30.12S WCI   0
VIROQUA        CLOUDY    12   9  85 N15       30.05R WCI  -4
BOSCOBEL       LGT SNOW  14   7  73 NE7G17    30.08R WCI   4
6HR MIN TEMP:  13; 6HR MAX TEMP:  18; 6HR PCP:  0.01;

PRAIRIE DU CHI MIX PCPN  15   8  75 N10G23    30.07R WCI   2
PLATTEVILLE    CLOUDY    12   9  85 N26G33    29.96R WCI  -8
$$

WIZ056-057-062-063-064-067-068-020100-
SOUTH CENTRAL WISCONSIN

CITY           SKY/WX    TMP DP  RH WIND       PRES   REMARKS
REEDSBURG      LGT SNOW  10   6  84 N13       30.06S WCI  -6
BARABOO/DELLS  LGT SNOW   9   4  81 N12G21    30.05R WCI  -6
LONE ROCK      NOT AVBL
MINERAL POINT  LGT SNOW  12   9  85 N22G32    29.96R WCI  -7
MADISON        LGT SNOW   9   4  80 N25G35    30.00R VSB 3/4 WCI -12
6HR MIN TEMP:   9; 6HR MAX TEMP:  15; 6HR PCP:  0.06;

MIDDLETON      CLOUDY    11   6  79 N22G30    30.00R VSB 1   WCI  -8
WATERTOWN      CLOUDY     8   5  86 N18G25    29.96R WCI -11
MONROE         LGT SNOW  12  10  92 N30G38    29.89R WCI  -9
JANESVILLE     SNOW      12   9  85 N20G29    29.90R VSB 1/2 WCI  -6
$$

WIZ051-052-058>065-066-070>072-020100-
SOUTHEAST WISCONSIN

CITY           SKY/WX    TMP DP  RH WIND       PRES   REMARKS
MILWAUKEE      SNOW      20  17  88 NE28G39   29.90R VSB 1/2 WCI   2
6HR MIN TEMP:  20; 6HR MAX TEMP:  23; 6HR PCP:  0.08;

WAUKESHA       LGT SNOW  16  12  86 NE12G35   29.92R VSB 3/4 WCI   3
MILWAUKEE/TIMM SNOW      21  16  79 N17G29    29.92R VSB 1/4 WCI   7
RACINE         SNOW      21  17  84 NE25G41   29.89R VSB 1/2 WCI   4
6HR MIN TEMP:  20; 6HR MAX TEMP:  23; 6HR PCP: TRACE;

BURLINGTON     LGT SNOW  19  16  89 N18G24    29.87R WCI   3
KENOSHA        SNOW      20  17  88 NE24G31   29.86R VSB 1/4 WCI   3
6HR MIN TEMP:  20; 6HR MAX TEMP:  24; 6HR PCP:  0.01;

FOND DU LAC    CLOUDY     8   3  80 N24G37    30.06R HAZE    WCI -13
6HR MIN TEMP:   8; 6HR MAX TEMP:  12; 6HR PCP: TRACE;

SHEBOYGAN      HAZE      10   5  80 N17G26    29.99R VSB 1/2 WCI  -8
6HR MIN TEMP:  10; 6HR MAX TEMP:  19; 6HR PCP: TRACE;

WEST BEND      LGT SNOW  12   9  85 N14G21    29.95R WCI  -3
JUNEAU         SNOW       7   3  83 N22G36    29.99R VSB 1/2 WCI -13
$$

LSZ147-162-020100-
LAKE SUPERIOR

STATION/POSITION TIME  TEMP    WIND        PRES    WAVE
                       AIR SEA DIR/SP/G            HT/PER
                 (UTC) (F)     (DEG/KT/KT) (MB)    (FT/S)
DEVILS ISLAND    2300   10      10/  9/ 12 1027.9F
PORT WING        2300   12      40/ 12/ 16 1026.4S
SAXON HARBOR     2300   14      10/ 14/ 17 1024.4F
$$

LMZ867-665-643>646-020100-
LAKE MICHIGAN

STATION/POSITION TIME  TEMP    WIND        PRES    WAVE
                       AIR SEA DIR/SP/G            HT/PER
                 (UTC) (F)     (DEG/KT/KT) (MB)    (FT/S)
NORTHPORT PIER   2334    9      30/ 16/ 24 1021.3F
SISTER BAY       2313    8      10/ 16/ 24   N/A
KEWAUNEE LAKESHO 2300   16     350/ 12/ 28 1017.4F
SHEBOYGAN LAKESH 2300   19      30/ 36/ 38 1015.9F
PORT WASHINGTON  2340   20      20/ 18/ 31 1015.2S
MILWAUKEE LAKESH 2300   22      40/ 34/ 38   N/A
KENOSHA   LAKESH 2300   22      30/ 33/ 41 1010.5F
$$

TC  - TEMPERATURE IN CELSIUS
VSB - VISIBILITY IN STATUTE MILES
WCI - WIND CHILL INDEX
HX  - HEAT INDEX




USA.gov is the U.S. government's official web portal to all federal, state and local government web resources and services.